Year,Month,Day,Hour,Minute,Value (Times are PST for windspeed in km/hr)
2013,09,30,00,00,21.40
2013,09,30,00,01,14.00
2013,09,30,00,02,17.40
2013,09,30,00,03,16.70
2013,09,30,00,04,15.70
2013,09,30,00,05,17.50
2013,09,30,00,06,22.60
2013,09,30,00,07,20.70
2013,09,30,00,08,17.90
2013,09,30,00,09,22.60
2013,09,30,00,10,21.70
2013,09,30,00,11,19.30
2013,09,30,00,12,20.20
2013,09,30,00,13,17.40
2013,09,30,00,14,19.40
2013,09,30,00,15,24.00
2013,09,30,00,16,18.80
2013,09,30,00,17,21.50
2013,09,30,00,18,17.40
2013,09,30,00,19,14.40
2013,09,30,00,20,19.10
2013,09,30,00,21,17.70
2013,09,30,00,22,22.30
2013,09,30,00,23,18.10
2013,09,30,00,24,18.60
2013,09,30,00,25,18.50
2013,09,30,00,26,20.80
2013,09,30,00,27,17.00
2013,09,30,00,28,24.40
2013,09,30,00,29,21.10
2013,09,30,00,30,24.10
2013,09,30,00,31,23.80
2013,09,30,00,32,27.90
2013,09,30,00,33,24.40
2013,09,30,00,34,18.20
2013,09,30,00,35,24.90
2013,09,30,00,36,25.50
2013,09,30,00,37,21.10
2013,09,30,00,38,26.00
2013,09,30,00,39,28.60
2013,09,30,00,40,26.70
2013,09,30,00,41,23.40
2013,09,30,00,42,28.60
2013,09,30,00,43,21.50
2013,09,30,00,44,23.60
2013,09,30,00,45,22.00
2013,09,30,00,46,22.40
2013,09,30,00,47,22.60
2013,09,30,00,48,16.40
2013,09,30,00,49,21.90
2013,09,30,00,50,18.70
2013,09,30,00,51,29.00
2013,09,30,00,52,24.50
2013,09,30,00,53,25.90
2013,09,30,00,54,20.50
2013,09,30,00,55,19.80
2013,09,30,00,56,19.70
2013,09,30,00,57,23.10
2013,09,30,00,58,24.00
2013,09,30,00,59,31.20
2013,09,30,01,00,24.60
2013,09,30,01,01,23.70
2013,09,30,01,02,24.50
2013,09,30,01,03,21.20
2013,09,30,01,04,23.60
2013,09,30,01,05,22.50
2013,09,30,01,06,22.60
2013,09,30,01,07,23.20
2013,09,30,01,08,21.30
2013,09,30,01,09,22.00
2013,09,30,01,10,21.60
2013,09,30,01,11,26.00
2013,09,30,01,12,19.00
2013,09,30,01,13,24.40
2013,09,30,01,14,22.00
2013,09,30,01,15,18.60
2013,09,30,01,16,17.40
2013,09,30,01,17,19.00
2013,09,30,01,18,21.80
2013,09,30,01,19,22.90
2013,09,30,01,20,23.10
2013,09,30,01,21,21.30
2013,09,30,01,22,23.60
2013,09,30,01,23,13.00
2013,09,30,01,24,15.20
2013,09,30,01,25,17.10
2013,09,30,01,26,14.30
2013,09,30,01,27,16.10
2013,09,30,01,28,19.80
2013,09,30,01,29,19.30
2013,09,30,01,30,17.50
2013,09,30,01,31,13.30
2013,09,30,01,32,14.20
2013,09,30,01,33,12.80
2013,09,30,01,34,17.00
2013,09,30,01,35,14.40
2013,09,30,01,36,17.40
2013,09,30,01,37,19.40
2013,09,30,01,38,17.10
2013,09,30,01,39,14.20
2013,09,30,01,40,10.70
2013,09,30,01,41,15.70
2013,09,30,01,42,16.70
2013,09,30,01,43,11.50
2013,09,30,01,44,14.80
2013,09,30,01,45,17.10
2013,09,30,01,46,19.40
2013,09,30,01,47,15.10
2013,09,30,01,48,13.80
2013,09,30,01,49,11.80
2013,09,30,01,50,12.70
2013,09,30,01,51,14.20
2013,09,30,01,52,16.00
2013,09,30,01,53,12.20
2013,09,30,01,54,9.40
2013,09,30,01,55,8.90
2013,09,30,01,56,14.50
2013,09,30,01,57,15.20
2013,09,30,01,58,14.60
2013,09,30,01,59,10.20
2013,09,30,02,00,14.30
2013,09,30,02,01,13.90
2013,09,30,02,02,10.20
2013,09,30,02,03,9.00
2013,09,30,02,04,10.50
2013,09,30,02,05,11.30
2013,09,30,02,06,11.30
2013,09,30,02,07,12.00
2013,09,30,02,08,10.90
2013,09,30,02,09,11.40
2013,09,30,02,10,14.00
2013,09,30,02,11,9.80
2013,09,30,02,12,12.70
2013,09,30,02,13,11.30
2013,09,30,02,14,10.70
2013,09,30,02,15,9.20
2013,09,30,02,16,11.20
2013,09,30,02,17,8.90
2013,09,30,02,18,8.70
2013,09,30,02,19,7.10
2013,09,30,02,20,7.90
2013,09,30,02,21,9.80
2013,09,30,02,22,6.80
2013,09,30,02,23,7.80
2013,09,30,02,24,8.10
2013,09,30,02,25,6.90
2013,09,30,02,26,8.40
2013,09,30,02,27,8.20
2013,09,30,02,28,9.80
2013,09,30,02,29,8.70
2013,09,30,02,30,8.40
2013,09,30,02,31,12.20
2013,09,30,02,32,12.40
2013,09,30,02,33,12.40
2013,09,30,02,34,11.30
2013,09,30,02,35,10.30
2013,09,30,02,36,10.50
2013,09,30,02,37,10.30
2013,09,30,02,38,13.90
2013,09,30,02,39,13.80
2013,09,30,02,40,11.00
2013,09,30,02,41,11.70
2013,09,30,02,42,6.30
2013,09,30,02,43,9.10
2013,09,30,02,44,7.60
2013,09,30,02,45,7.70
2013,09,30,02,46,8.00
2013,09,30,02,47,7.60
2013,09,30,02,48,9.90
2013,09,30,02,49,8.70
2013,09,30,02,50,8.10
2013,09,30,02,51,10.70
2013,09,30,02,52,8.30
2013,09,30,02,53,8.20
2013,09,30,02,54,7.10
2013,09,30,02,55,3.10
2013,09,30,02,56,4.20
2013,09,30,02,57,7.30
2013,09,30,02,58,7.50
2013,09,30,02,59,6.10
2013,09,30,03,00,6.30
2013,09,30,03,01,6.80
2013,09,30,03,02,11.20
2013,09,30,03,03,11.40
2013,09,30,03,04,10.00
2013,09,30,03,05,13.60
2013,09,30,03,06,13.50
2013,09,30,03,07,10.40
2013,09,30,03,08,10.60
2013,09,30,03,09,5.40
2013,09,30,03,10,3.70
2013,09,30,03,11,10.50
2013,09,30,03,12,8.90
2013,09,30,03,13,10.70
2013,09,30,03,14,8.20
2013,09,30,03,15,8.90
2013,09,30,03,16,5.00
2013,09,30,03,17,6.60
2013,09,30,03,18,2.80
2013,09,30,03,19,4.50
2013,09,30,03,20,6.20
2013,09,30,03,21,7.90
2013,09,30,03,22,6.80
2013,09,30,03,23,10.20
2013,09,30,03,24,12.90
2013,09,30,03,25,13.70
2013,09,30,03,26,9.70
2013,09,30,03,27,8.60
2013,09,30,03,28,7.20
2013,09,30,03,29,7.10
2013,09,30,03,30,11.70
2013,09,30,03,31,10.50
2013,09,30,03,32,13.30
2013,09,30,03,33,13.30
2013,09,30,03,34,10.30
2013,09,30,03,35,12.50
2013,09,30,03,36,10.40
2013,09,30,03,37,9.90
2013,09,30,03,38,12.90
2013,09,30,03,39,14.10
2013,09,30,03,40,12.10
2013,09,30,03,41,9.90
2013,09,30,03,42,6.10
2013,09,30,03,43,7.50
2013,09,30,03,44,8.40
2013,09,30,03,45,10.10
2013,09,30,03,46,7.40
2013,09,30,03,47,11.00
2013,09,30,03,48,14.00
2013,09,30,03,49,10.70
2013,09,30,03,50,9.60
2013,09,30,03,51,9.90
2013,09,30,03,52,10.90
2013,09,30,03,53,15.30
2013,09,30,03,54,15.40
2013,09,30,03,55,11.20
2013,09,30,03,56,7.90
2013,09,30,03,57,8.10
2013,09,30,03,58,8.90
2013,09,30,03,59,7.70
2013,09,30,04,00,8.70
2013,09,30,04,01,3.60
2013,09,30,04,02,7.70
2013,09,30,04,03,7.50
2013,09,30,04,04,5.00
2013,09,30,04,05,5.70
2013,09,30,04,06,3.50
2013,09,30,04,07,4.00
2013,09,30,04,08,2.60
2013,09,30,04,09,2.40
2013,09,30,04,10,4.90
2013,09,30,04,11,3.00
2013,09,30,04,12,2.60
2013,09,30,04,13,5.40
2013,09,30,04,14,3.70
2013,09,30,04,15,4.30
2013,09,30,04,16,4.40
2013,09,30,04,17,3.50
2013,09,30,04,18,2.60
2013,09,30,04,19,1.50
2013,09,30,04,20,1.90
2013,09,30,04,21,4.00
2013,09,30,04,22,6.00
2013,09,30,04,23,6.80
2013,09,30,04,24,8.00
2013,09,30,04,25,4.60
2013,09,30,04,26,5.60
2013,09,30,04,27,7.30
2013,09,30,04,28,4.70
2013,09,30,04,29,6.20
2013,09,30,04,30,9.70
2013,09,30,04,31,10.70
2013,09,30,04,32,6.20
2013,09,30,04,33,10.50
2013,09,30,04,34,8.70
2013,09,30,04,35,7.40
2013,09,30,04,36,4.40
2013,09,30,04,37,2.90
2013,09,30,04,38,4.20
2013,09,30,04,39,2.00
2013,09,30,04,40,2.30
2013,09,30,04,41,0.90
2013,09,30,04,42,2.80
2013,09,30,04,43,2.70
2013,09,30,04,44,8.90
2013,09,30,04,45,7.70
2013,09,30,04,46,4.10
2013,09,30,04,47,5.20
2013,09,30,04,48,5.70
2013,09,30,04,49,5.80
2013,09,30,04,50,2.60
2013,09,30,04,51,6.00
2013,09,30,04,52,4.60
2013,09,30,04,53,3.00
2013,09,30,04,54,5.90
2013,09,30,04,55,6.40
2013,09,30,04,56,2.40
2013,09,30,04,57,2.40
2013,09,30,04,58,3.30
2013,09,30,04,59,4.20
2013,09,30,05,00,6.30
2013,09,30,05,01,11.20
2013,09,30,05,02,6.30
2013,09,30,05,03,9.70
2013,09,30,05,04,10.60
2013,09,30,05,05,10.90
2013,09,30,05,06,7.70
2013,09,30,05,07,5.10
2013,09,30,05,08,3.80
2013,09,30,05,09,5.10
2013,09,30,05,10,5.90
2013,09,30,05,11,6.40
2013,09,30,05,12,4.30
2013,09,30,05,13,2.70
2013,09,30,05,14,3.90
2013,09,30,05,15,4.80
2013,09,30,05,16,3.60
2013,09,30,05,17,10.50
2013,09,30,05,18,11.70
2013,09,30,05,19,10.60
2013,09,30,05,20,7.30
2013,09,30,05,21,8.90
2013,09,30,05,22,5.20
2013,09,30,05,23,2.70
2013,09,30,05,24,5.40
2013,09,30,05,25,2.90
2013,09,30,05,26,2.30
2013,09,30,05,27,5.80
2013,09,30,05,28,6.80
2013,09,30,05,29,10.40
2013,09,30,05,30,8.20
2013,09,30,05,31,7.70
2013,09,30,05,32,5.50
2013,09,30,05,33,7.50
2013,09,30,05,34,8.30
2013,09,30,05,35,13.40
2013,09,30,05,36,9.00
2013,09,30,05,37,10.20
2013,09,30,05,38,10.10
2013,09,30,05,39,3.40
2013,09,30,05,40,3.60
2013,09,30,05,41,4.70
2013,09,30,05,42,2.60
2013,09,30,05,43,3.70
2013,09,30,05,44,3.60
2013,09,30,05,45,2.70
2013,09,30,05,46,2.90
2013,09,30,05,47,2.90
2013,09,30,05,48,4.00
2013,09,30,05,49,3.20
2013,09,30,05,50,4.50
2013,09,30,05,51,5.20
2013,09,30,05,52,7.00
2013,09,30,05,53,6.80
2013,09,30,05,54,4.20
2013,09,30,05,55,8.10
2013,09,30,05,56,5.00
2013,09,30,05,57,4.90
2013,09,30,05,58,5.20
2013,09,30,05,59,5.20
2013,09,30,06,00,2.10
2013,09,30,06,01,0.40
2013,09,30,06,02,0.30
2013,09,30,06,03,0.80
2013,09,30,06,04,1.60
2013,09,30,06,05,2.50
2013,09,30,06,06,1.10
2013,09,30,06,07,3.30
2013,09,30,06,08,3.70
2013,09,30,06,09,1.10
2013,09,30,06,10,2.70
2013,09,30,06,11,3.10
2013,09,30,06,12,6.30
2013,09,30,06,13,4.00
2013,09,30,06,14,4.10
2013,09,30,06,15,2.80
2013,09,30,06,16,1.00
2013,09,30,06,17,3.20
2013,09,30,06,18,4.80
2013,09,30,06,19,5.80
2013,09,30,06,20,2.40
2013,09,30,06,21,2.70
2013,09,30,06,22,3.70
2013,09,30,06,23,3.70
2013,09,30,06,24,1.70
2013,09,30,06,25,1.30
2013,09,30,06,26,0.70
2013,09,30,06,27,1.70
2013,09,30,06,28,1.70
2013,09,30,06,29,1.60
2013,09,30,06,30,3.20
2013,09,30,06,31,3.70
2013,09,30,06,32,3.70
2013,09,30,06,33,4.30
2013,09,30,06,34,2.00
2013,09,30,06,35,2.30
2013,09,30,06,36,3.20
2013,09,30,06,37,2.40
2013,09,30,06,38,1.80
2013,09,30,06,39,3.20
2013,09,30,06,40,2.00
2013,09,30,06,41,3.30
2013,09,30,06,42,4.50
2013,09,30,06,43,3.40
2013,09,30,06,44,3.70
2013,09,30,06,45,2.20
2013,09,30,06,46,3.30
2013,09,30,06,47,5.80
2013,09,30,06,48,6.70
2013,09,30,06,49,5.90
2013,09,30,06,50,6.80
2013,09,30,06,51,6.30
2013,09,30,06,52,3.80
2013,09,30,06,53,8.50
2013,09,30,06,54,5.20
2013,09,30,06,55,5.70
2013,09,30,06,56,2.80
2013,09,30,06,57,3.10
2013,09,30,06,58,3.80
2013,09,30,06,59,0.90
2013,09,30,07,00,1.70
2013,09,30,07,01,6.00
2013,09,30,07,02,6.00
2013,09,30,07,03,4.20
2013,09,30,07,04,4.70
2013,09,30,07,05,5.60
2013,09,30,07,06,2.50
2013,09,30,07,07,3.30
2013,09,30,07,08,3.10
2013,09,30,07,09,7.20
2013,09,30,07,10,3.60
2013,09,30,07,11,6.60
2013,09,30,07,12,3.40
2013,09,30,07,13,5.00
2013,09,30,07,14,3.30
2013,09,30,07,15,3.20
2013,09,30,07,16,2.60
2013,09,30,07,17,2.50
2013,09,30,07,18,2.10
2013,09,30,07,19,1.60
2013,09,30,07,20,3.60
2013,09,30,07,21,3.70
2013,09,30,07,22,3.30
2013,09,30,07,23,2.40
2013,09,30,07,24,6.20
2013,09,30,07,25,3.80
2013,09,30,07,26,4.40
2013,09,30,07,27,4.30
2013,09,30,07,28,2.40
2013,09,30,07,29,2.80
2013,09,30,07,30,4.80
2013,09,30,07,31,5.40
2013,09,30,07,32,3.40
2013,09,30,07,33,3.80
2013,09,30,07,34,3.80
2013,09,30,07,35,5.60
2013,09,30,07,36,3.90
2013,09,30,07,37,4.30
2013,09,30,07,38,6.30
2013,09,30,07,39,4.20
2013,09,30,07,40,1.90
2013,09,30,07,41,1.80
2013,09,30,07,42,2.40
2013,09,30,07,43,3.10
2013,09,30,07,44,3.30
2013,09,30,07,45,5.40
2013,09,30,07,46,4.60
2013,09,30,07,47,3.90
2013,09,30,07,48,4.20
2013,09,30,07,49,3.30
2013,09,30,07,50,3.70
2013,09,30,07,51,4.50
2013,09,30,07,52,5.40
2013,09,30,07,53,9.90
2013,09,30,07,54,10.10
2013,09,30,07,55,9.40
2013,09,30,07,56,8.80
2013,09,30,07,57,4.20
2013,09,30,07,58,3.20
2013,09,30,07,59,3.40
2013,09,30,08,00,0.90
2013,09,30,08,01,2.50
2013,09,30,08,02,1.60
2013,09,30,08,03,1.60
2013,09,30,08,04,2.20
2013,09,30,08,05,2.90
2013,09,30,08,06,1.90
2013,09,30,08,07,2.20
2013,09,30,08,08,3.60
2013,09,30,08,09,4.90
2013,09,30,08,10,5.20
2013,09,30,08,11,5.70
2013,09,30,08,12,4.50
2013,09,30,08,13,1.70
2013,09,30,08,14,1.90
2013,09,30,08,15,2.60
2013,09,30,08,16,5.10
2013,09,30,08,17,4.80
2013,09,30,08,18,2.20
2013,09,30,08,19,0.80
2013,09,30,08,20,2.80
2013,09,30,08,21,3.30
2013,09,30,08,22,2.50
2013,09,30,08,23,2.50
2013,09,30,08,24,1.70
2013,09,30,08,25,2.70
2013,09,30,08,26,6.90
2013,09,30,08,27,6.40
2013,09,30,08,28,7.40
2013,09,30,08,29,8.80
2013,09,30,08,30,6.00
2013,09,30,08,31,6.60
2013,09,30,08,32,5.20
2013,09,30,08,33,4.70
2013,09,30,08,34,7.40
2013,09,30,08,35,11.80
2013,09,30,08,36,7.80
2013,09,30,08,37,7.60
2013,09,30,08,38,8.30
2013,09,30,08,39,3.70
2013,09,30,08,40,2.70
2013,09,30,08,41,2.80
2013,09,30,08,42,3.50
2013,09,30,08,43,9.00
2013,09,30,08,44,3.80
2013,09,30,08,45,6.00
2013,09,30,08,46,7.10
2013,09,30,08,47,6.90
2013,09,30,08,48,6.80
2013,09,30,08,49,7.00
2013,09,30,08,50,4.90
2013,09,30,08,51,5.30
2013,09,30,08,52,5.70
2013,09,30,08,53,4.50
2013,09,30,08,54,3.00
2013,09,30,08,55,6.60
2013,09,30,08,56,12.70
2013,09,30,08,57,11.30
2013,09,30,08,58,11.70
2013,09,30,08,59,8.60
2013,09,30,09,00,10.10
2013,09,30,09,01,6.80
2013,09,30,09,02,5.10
2013,09,30,09,03,12.90
2013,09,30,09,04,10.90
2013,09,30,09,05,7.90
2013,09,30,09,06,9.40
2013,09,30,09,07,8.20
2013,09,30,09,08,8.50
2013,09,30,09,09,6.70
2013,09,30,09,10,7.40
2013,09,30,09,11,5.90
2013,09,30,09,12,5.00
2013,09,30,09,13,11.70
2013,09,30,09,14,8.70
2013,09,30,09,15,9.30
2013,09,30,09,16,12.10
2013,09,30,09,17,5.90
2013,09,30,09,18,5.40
2013,09,30,09,19,5.10
2013,09,30,09,20,18.00
2013,09,30,09,21,14.90
2013,09,30,09,22,7.80
2013,09,30,09,23,3.70
2013,09,30,09,24,7.60
2013,09,30,09,25,4.50
2013,09,30,09,26,6.40
2013,09,30,09,27,6.70
2013,09,30,09,28,6.90
2013,09,30,09,29,8.90
2013,09,30,09,30,12.20
2013,09,30,09,31,9.40
2013,09,30,09,32,10.10
2013,09,30,09,33,10.70
2013,09,30,09,34,11.70
2013,09,30,09,35,14.70
2013,09,30,09,36,14.80
2013,09,30,09,37,13.20
2013,09,30,09,38,14.20
2013,09,30,09,39,11.80
2013,09,30,09,40,8.80
2013,09,30,09,41,4.50
2013,09,30,09,42,7.40
2013,09,30,09,43,2.80
2013,09,30,09,44,3.80
2013,09,30,09,45,5.30
2013,09,30,09,46,1.70
2013,09,30,09,47,2.00
2013,09,30,09,48,2.20
2013,09,30,09,49,3.60
2013,09,30,09,50,2.30
2013,09,30,09,51,2.40
2013,09,30,09,52,4.40
2013,09,30,09,53,4.40
2013,09,30,09,54,4.40
2013,09,30,09,55,6.20
2013,09,30,09,56,5.40
2013,09,30,09,57,3.00
2013,09,30,09,58,3.00
2013,09,30,09,59,5.20
2013,09,30,10,00,6.30
2013,09,30,10,01,9.30
2013,09,30,10,02,7.40
2013,09,30,10,03,9.70
2013,09,30,10,04,7.30
2013,09,30,10,05,5.40
2013,09,30,10,06,2.60
2013,09,30,10,07,3.60
2013,09,30,10,08,2.30
2013,09,30,10,09,4.20
2013,09,30,10,10,4.50
2013,09,30,10,11,3.00
2013,09,30,10,12,3.00
2013,09,30,10,13,3.20
2013,09,30,10,14,2.60
2013,09,30,10,15,1.80
2013,09,30,10,16,1.90
2013,09,30,10,17,1.20
2013,09,30,10,18,2.70
2013,09,30,10,19,2.40
2013,09,30,10,20,2.50
2013,09,30,10,21,3.50
2013,09,30,10,22,3.30
2013,09,30,10,23,2.80
2013,09,30,10,24,2.10
2013,09,30,10,25,2.30
2013,09,30,10,26,4.10
2013,09,30,10,27,4.50
2013,09,30,10,28,4.00
2013,09,30,10,29,2.20
2013,09,30,10,30,0.60
2013,09,30,10,31,0.70
2013,09,30,10,32,0.80
2013,09,30,10,33,2.10
2013,09,30,10,34,3.20
2013,09,30,10,35,3.00
2013,09,30,10,36,2.70
2013,09,30,10,37,1.70
2013,09,30,10,38,3.00
2013,09,30,10,39,3.70
2013,09,30,10,40,3.20
2013,09,30,10,41,4.90
2013,09,30,10,42,4.10
2013,09,30,10,43,1.70
2013,09,30,10,44,0.40
2013,09,30,10,45,0.20
2013,09,30,10,46,0.80
2013,09,30,10,47,1.80
2013,09,30,10,48,1.40
2013,09,30,10,49,2.50
2013,09,30,10,50,2.70
2013,09,30,10,51,2.90
2013,09,30,10,52,3.70
2013,09,30,10,53,3.60
2013,09,30,10,54,1.60
2013,09,30,10,55,3.30
2013,09,30,10,56,2.40
2013,09,30,10,57,0.20
2013,09,30,10,58,0.10
2013,09,30,10,59,0.00
2013,09,30,11,00,1.70
2013,09,30,11,01,4.50
2013,09,30,11,02,4.50
2013,09,30,11,03,2.70
2013,09,30,11,04,2.30
2013,09,30,11,05,3.20
2013,09,30,11,06,4.20
2013,09,30,11,07,2.70
2013,09,30,11,08,3.50
2013,09,30,11,09,4.50
2013,09,30,11,10,4.70
2013,09,30,11,11,5.90
2013,09,30,11,12,3.10
2013,09,30,11,13,3.10
2013,09,30,11,14,3.70
2013,09,30,11,15,3.70
2013,09,30,11,16,3.10
2013,09,30,11,17,3.70
2013,09,30,11,18,5.40
2013,09,30,11,19,4.80
2013,09,30,11,20,3.00
2013,09,30,11,21,5.50
2013,09,30,11,22,7.60
2013,09,30,11,23,7.50
2013,09,30,11,24,4.80
2013,09,30,11,25,3.20
2013,09,30,11,26,5.20
2013,09,30,11,27,4.90
2013,09,30,11,28,2.60
2013,09,30,11,29,5.00
2013,09,30,11,30,1.70
2013,09,30,11,31,5.10
2013,09,30,11,32,5.90
2013,09,30,11,33,3.40
2013,09,30,11,34,4.10
2013,09,30,11,35,3.30
2013,09,30,11,36,6.40
2013,09,30,11,37,7.40
2013,09,30,11,38,7.40
2013,09,30,11,39,5.60
2013,09,30,11,40,5.20
2013,09,30,11,41,4.00
2013,09,30,11,42,3.10
2013,09,30,11,43,2.50
2013,09,30,11,44,1.90
2013,09,30,11,45,3.70
2013,09,30,11,46,3.30
2013,09,30,11,47,5.30
2013,09,30,11,48,3.70
2013,09,30,11,49,2.40
2013,09,30,11,50,2.50
2013,09,30,11,51,1.50
2013,09,30,11,52,1.30
2013,09,30,11,53,0.40
2013,09,30,11,54,0.80
2013,09,30,11,55,1.80
2013,09,30,11,56,2.00
2013,09,30,11,57,3.30
2013,09,30,11,58,1.70
2013,09,30,11,59,2.40
2013,09,30,12,00,3.90
2013,09,30,12,01,3.80
2013,09,30,12,02,2.00
2013,09,30,12,03,0.30
2013,09,30,12,04,0.90
2013,09,30,12,05,0.30
2013,09,30,12,06,0.60
2013,09,30,12,07,2.60
2013,09,30,12,08,2.80
2013,09,30,12,09,1.80
2013,09,30,12,10,1.80
2013,09,30,12,11,0.20
2013,09,30,12,12,1.40
2013,09,30,12,13,2.70
2013,09,30,12,14,1.90
2013,09,30,12,15,2.50
2013,09,30,12,16,3.50
2013,09,30,12,17,5.40
2013,09,30,12,18,5.90
2013,09,30,12,19,6.50
2013,09,30,12,20,5.70
2013,09,30,12,21,8.50
2013,09,30,12,22,6.80
2013,09,30,12,23,4.30
2013,09,30,12,24,5.00
2013,09,30,12,25,7.30
2013,09,30,12,26,6.10
2013,09,30,12,27,11.20
2013,09,30,12,28,11.40
2013,09,30,12,29,9.80
2013,09,30,12,30,9.60
2013,09,30,12,31,8.70
2013,09,30,12,32,5.00
2013,09,30,12,33,3.70
2013,09,30,12,34,5.90
2013,09,30,12,35,4.60
2013,09,30,12,36,5.20
2013,09,30,12,37,6.20
2013,09,30,12,38,4.50
2013,09,30,12,39,5.90
2013,09,30,12,40,6.20
2013,09,30,12,41,5.90
2013,09,30,12,42,6.40
2013,09,30,12,43,8.90
2013,09,30,12,44,9.30
2013,09,30,12,45,10.80
2013,09,30,12,46,12.30
2013,09,30,12,47,9.50
2013,09,30,12,48,8.90
2013,09,30,12,49,9.70
2013,09,30,12,50,13.70
2013,09,30,12,51,11.00
2013,09,30,12,52,6.20
2013,09,30,12,53,5.00
2013,09,30,12,54,8.80
2013,09,30,12,55,15.40
2013,09,30,12,56,16.40
2013,09,30,12,57,16.60
2013,09,30,12,58,12.50
2013,09,30,12,59,11.50
2013,09,30,13,00,12.40
2013,09,30,13,01,13.30
2013,09,30,13,02,14.40
2013,09,30,13,03,15.40
2013,09,30,13,04,10.10
2013,09,30,13,05,12.80
2013,09,30,13,06,13.70
2013,09,30,13,07,13.80
2013,09,30,13,08,13.20
2013,09,30,13,09,9.30
2013,09,30,13,10,11.30
2013,09,30,13,11,11.30
2013,09,30,13,12,16.50
2013,09,30,13,13,16.60
2013,09,30,13,14,13.70
2013,09,30,13,15,12.50
2013,09,30,13,16,15.90
2013,09,30,13,17,15.20
2013,09,30,13,18,17.50
2013,09,30,13,19,14.30
2013,09,30,13,20,19.50
2013,09,30,13,21,22.90
2013,09,30,13,22,16.00
2013,09,30,13,23,16.50
2013,09,30,13,24,16.60
2013,09,30,13,25,12.40
2013,09,30,13,26,10.00
2013,09,30,13,27,17.50
2013,09,30,13,28,12.70
2013,09,30,13,29,16.80
2013,09,30,13,30,15.50
2013,09,30,13,31,14.30
2013,09,30,13,32,18.00
2013,09,30,13,33,15.90
2013,09,30,13,34,15.10
2013,09,30,13,35,17.00
2013,09,30,13,36,18.90
2013,09,30,13,37,18.50
2013,09,30,13,38,19.00
2013,09,30,13,39,14.50
2013,09,30,13,40,14.30
2013,09,30,13,41,8.60
2013,09,30,13,42,15.50
2013,09,30,13,43,20.10
2013,09,30,13,44,13.30
2013,09,30,13,45,12.60
2013,09,30,13,46,13.90
2013,09,30,13,47,14.70
2013,09,30,13,48,10.80
2013,09,30,13,49,11.50
2013,09,30,13,50,12.70
2013,09,30,13,51,11.70
2013,09,30,13,52,12.90
2013,09,30,13,53,13.10
2013,09,30,13,54,13.40
2013,09,30,13,55,10.70
2013,09,30,13,56,6.50
2013,09,30,13,57,9.90
2013,09,30,13,58,17.40
2013,09,30,13,59,16.80
2013,09,30,14,00,17.10
2013,09,30,14,01,16.90
2013,09,30,14,02,16.10
2013,09,30,14,03,11.80
2013,09,30,14,04,6.00
2013,09,30,14,05,16.70
2013,09,30,14,06,12.00
2013,09,30,14,07,15.70
2013,09,30,14,08,14.40
2013,09,30,14,09,13.90
2013,09,30,14,10,8.10
2013,09,30,14,11,11.30
2013,09,30,14,12,12.30
2013,09,30,14,13,16.50
2013,09,30,14,14,19.40
2013,09,30,14,15,15.40
2013,09,30,14,16,17.90
2013,09,30,14,17,19.10
2013,09,30,14,18,14.80
2013,09,30,14,19,8.90
2013,09,30,14,20,13.20
2013,09,30,14,21,8.20
2013,09,30,14,22,9.20
2013,09,30,14,23,7.60
2013,09,30,14,24,10.00
2013,09,30,14,25,14.30
2013,09,30,14,26,15.10
2013,09,30,14,27,8.30
2013,09,30,14,28,7.70
2013,09,30,14,29,6.80
2013,09,30,14,30,10.20
2013,09,30,14,31,13.80
2013,09,30,14,32,17.20
2013,09,30,14,33,16.30
2013,09,30,14,34,13.40
2013,09,30,14,35,10.50
2013,09,30,14,36,8.60
2013,09,30,14,37,14.50
2013,09,30,14,38,11.90
2013,09,30,14,39,13.50
2013,09,30,14,40,11.90
2013,09,30,14,41,12.70
2013,09,30,14,42,11.30
2013,09,30,14,43,12.70
2013,09,30,14,44,14.10
2013,09,30,14,45,13.30
2013,09,30,14,46,11.90
2013,09,30,14,47,12.80
2013,09,30,14,48,9.80
2013,09,30,14,49,8.60
2013,09,30,14,50,8.90
2013,09,30,14,51,7.30
2013,09,30,14,52,8.90
2013,09,30,14,53,9.10
2013,09,30,14,54,10.90
2013,09,30,14,55,16.30
2013,09,30,14,56,13.80
2013,09,30,14,57,14.30
2013,09,30,14,58,12.70
2013,09,30,14,59,13.80
2013,09,30,15,00,12.10
2013,09,30,15,01,10.80
2013,09,30,15,02,9.70
2013,09,30,15,03,8.80
2013,09,30,15,04,11.80
2013,09,30,15,05,13.30
2013,09,30,15,06,11.20
2013,09,30,15,07,13.00
2013,09,30,15,08,11.70
2013,09,30,15,09,15.10
2013,09,30,15,10,11.30
2013,09,30,15,11,12.20
2013,09,30,15,12,11.10
2013,09,30,15,13,8.80
2013,09,30,15,14,10.40
2013,09,30,15,15,11.20
2013,09,30,15,16,9.40
2013,09,30,15,17,16.50
2013,09,30,15,18,13.20
2013,09,30,15,19,16.80
2013,09,30,15,20,16.90
2013,09,30,15,21,16.50
2013,09,30,15,22,15.80
2013,09,30,15,23,15.30
2013,09,30,15,24,17.80
2013,09,30,15,25,14.40
2013,09,30,15,26,8.20
2013,09,30,15,27,8.40
2013,09,30,15,28,7.00
2013,09,30,15,29,9.00
2013,09,30,15,30,5.80
2013,09,30,15,31,6.90
2013,09,30,15,32,6.80
2013,09,30,15,33,9.40
2013,09,30,15,34,9.20
2013,09,30,15,35,8.70
2013,09,30,15,36,10.60
2013,09,30,15,37,7.40
2013,09,30,15,38,12.90
2013,09,30,15,39,9.80
2013,09,30,15,40,9.50
2013,09,30,15,41,5.80
2013,09,30,15,42,9.20
2013,09,30,15,43,8.20
2013,09,30,15,44,9.70
2013,09,30,15,45,10.40
2013,09,30,15,46,12.10
2013,09,30,15,47,13.50
2013,09,30,15,48,15.70
2013,09,30,15,49,12.20
2013,09,30,15,50,11.20
2013,09,30,15,51,12.10
2013,09,30,15,52,4.80
2013,09,30,15,53,6.10
2013,09,30,15,54,8.00
2013,09,30,15,55,8.20
2013,09,30,15,56,8.40
2013,09,30,15,57,6.60
2013,09,30,15,58,6.00
2013,09,30,15,59,4.30
2013,09,30,16,00,3.10
2013,09,30,16,01,4.90
2013,09,30,16,02,7.00
2013,09,30,16,03,6.40
2013,09,30,16,04,7.60
2013,09,30,16,05,4.80
2013,09,30,16,06,6.00
2013,09,30,16,07,6.30
2013,09,30,16,08,5.70
2013,09,30,16,09,7.60
2013,09,30,16,10,10.20
2013,09,30,16,11,12.00
2013,09,30,16,12,8.90
2013,09,30,16,13,14.50
2013,09,30,16,14,17.80
2013,09,30,16,15,15.90
2013,09,30,16,16,13.20
2013,09,30,16,17,9.70
2013,09,30,16,18,11.20
2013,09,30,16,19,10.30
2013,09,30,16,20,10.70
2013,09,30,16,21,14.80
2013,09,30,16,22,14.50
2013,09,30,16,23,18.70
2013,09,30,16,24,20.80
2013,09,30,16,25,16.50
2013,09,30,16,26,15.10
2013,09,30,16,27,10.10
2013,09,30,16,28,13.60
2013,09,30,16,29,14.70
2013,09,30,16,30,12.90
2013,09,30,16,31,9.60
2013,09,30,16,32,8.40
2013,09,30,16,33,13.70
2013,09,30,16,34,12.50
2013,09,30,16,35,8.40
2013,09,30,16,36,9.30
2013,09,30,16,37,7.30
2013,09,30,16,38,6.50
2013,09,30,16,39,12.20
2013,09,30,16,40,8.00
2013,09,30,16,41,11.30
2013,09,30,16,42,9.60
2013,09,30,16,43,9.60
2013,09,30,16,44,8.60
2013,09,30,16,45,8.70
2013,09,30,16,46,14.00
2013,09,30,16,47,13.70
2013,09,30,16,48,9.90
2013,09,30,16,49,8.40
2013,09,30,16,50,10.50
2013,09,30,16,51,12.60
2013,09,30,16,52,11.30
2013,09,30,16,53,11.70
2013,09,30,16,54,10.20
2013,09,30,16,55,6.30
2013,09,30,16,56,6.20
2013,09,30,16,57,12.60
2013,09,30,16,58,9.30
2013,09,30,16,59,7.80
2013,09,30,17,00,7.10
2013,09,30,17,01,10.80
2013,09,30,17,02,11.20
2013,09,30,17,03,9.40
2013,09,30,17,04,8.00
2013,09,30,17,05,4.00
2013,09,30,17,06,6.50
2013,09,30,17,07,13.20
2013,09,30,17,08,4.80
2013,09,30,17,09,5.80
2013,09,30,17,10,7.10
2013,09,30,17,11,3.50
2013,09,30,17,12,4.80
2013,09,30,17,13,6.40
2013,09,30,17,14,6.90
2013,09,30,17,15,7.20
2013,09,30,17,16,9.90
2013,09,30,17,17,10.00
2013,09,30,17,18,8.70
2013,09,30,17,19,7.40
2013,09,30,17,20,7.40
2013,09,30,17,21,6.90
2013,09,30,17,22,7.40
2013,09,30,17,23,4.80
2013,09,30,17,24,7.20
2013,09,30,17,25,5.20
2013,09,30,17,26,3.70
2013,09,30,17,27,10.20
2013,09,30,17,28,7.60
2013,09,30,17,29,9.20
2013,09,30,17,30,5.00
2013,09,30,17,31,6.30
2013,09,30,17,32,11.00
2013,09,30,17,33,11.70
2013,09,30,17,34,16.60
2013,09,30,17,35,10.10
2013,09,30,17,36,15.50
2013,09,30,17,37,12.20
2013,09,30,17,38,10.60
2013,09,30,17,39,7.00
2013,09,30,17,40,8.70
2013,09,30,17,41,7.90
2013,09,30,17,42,9.10
2013,09,30,17,43,10.90
2013,09,30,17,44,7.30
2013,09,30,17,45,10.10
2013,09,30,17,46,6.30
2013,09,30,17,47,5.50
2013,09,30,17,48,7.80